Time,TemperatureF,DewpointF,PressureIn,WindDirection,WindDirectionDegrees,WindSpeedMPH,WindSpeedGustMPH,Humidity,HourlyPrecipIn,Conditions,Clouds,dailyrainin,SoftwareType,DateUTC
2015-02-27 00:13:00,19.4,19.0,30.02,North,-9999,-999.9,-999.0,97,-99.99,,,0.00,weatherlink.com 1.10,2015-02-27 05:13:00,
2015-02-27 00:28:00,20.1,19.0,30.02,North,-9999,-999.9,-999.0,97,-99.99,,,0.00,weatherlink.com 1.10,2015-02-27 05:28:00,
2015-02-27 00:43:00,19.9,19.0,30.02,North,-9999,-999.9,-999.0,97,-99.99,,,0.00,weatherlink.com 1.10,2015-02-27 05:43:00,
2015-02-27 00:59:00,20.5,20.0,30.02,North,-9999,-999.9,-999.0,98,-99.99,,,0.00,weatherlink.com 1.10,2015-02-27 05:59:00,
2015-02-27 01:14:00,21.3,21.0,30.03,North,-9999,-999.9,-999.0,98,-99.99,,,0.00,weatherlink.com 1.10,2015-02-27 06:14:00,
2015-02-27 01:29:00,21.8,21.0,30.04,North,-9999,-999.9,-999.0,98,-99.99,,,0.00,weatherlink.com 1.10,2015-02-27 06:29:00,
2015-02-27 01:44:00,22.1,22.0,30.05,North,-9999,-999.9,-999.0,98,-99.99,,,0.00,weatherlink.com 1.10,2015-02-27 06:44:00,
2015-02-27 02:14:00,23.4,23.0,30.05,North,-9999,-999.9,-999.0,99,-99.99,,,0.00,weatherlink.com 1.10,2015-02-27 07:14:00,
2015-02-27 02:29:00,23.8,24.0,30.05,North,-9999,-999.9,-999.0,99,-99.99,,,0.00,weatherlink.com 1.10,2015-02-27 07:29:00,
2015-02-27 02:44:00,24.3,24.0,30.05,North,-9999,-999.9,-999.0,99,-99.99,,,0.00,weatherlink.com 1.10,2015-02-27 07:44:00,
2015-02-27 02:59:00,24.5,24.0,30.05,North,-9999,-999.9,-999.0,99,-99.99,,,0.00,weatherlink.com 1.10,2015-02-27 07:59:00,
2015-02-27 03:14:00,25.1,25.0,30.05,North,-9999,-999.9,-999.0,99,-99.99,,,0.00,weatherlink.com 1.10,2015-02-27 08:14:00,
2015-02-27 03:29:00,25.4,25.0,30.05,North,-9999,-999.9,-999.0,99,-99.99,,,0.00,weatherlink.com 1.10,2015-02-27 08:29:00,
2015-02-27 03:44:00,25.8,26.0,30.06,North,-9999,-999.9,-999.0,99,-99.99,,,0.00,weatherlink.com 1.10,2015-02-27 08:44:00,
2015-02-27 03:59:00,26.3,26.0,30.07,North,-9999,-999.9,-999.0,100,-99.99,,,0.00,weatherlink.com 1.10,2015-02-27 08:59:00,
2015-02-27 04:14:00,26.7,27.0,30.07,North,-9999,-999.9,-999.0,100,-99.99,,,0.00,weatherlink.com 1.10,2015-02-27 09:14:00,
2015-02-27 04:30:00,27.0,27.0,30.08,North,-9999,-999.9,-999.0,100,-99.99,,,0.00,weatherlink.com 1.10,2015-02-27 09:30:00,
2015-02-27 04:45:00,27.4,27.0,30.08,North,-9999,-999.9,-999.0,100,-99.99,,,0.00,weatherlink.com 1.10,2015-02-27 09:45:00,
2015-02-27 05:00:00,27.7,28.0,30.08,North,-9999,-999.9,-999.0,100,-99.99,,,0.00,weatherlink.com 1.10,2015-02-27 10:00:00,
2015-02-27 05:15:00,28.0,28.0,30.10,North,-9999,-999.9,-999.0,100,-99.99,,,0.00,weatherlink.com 1.10,2015-02-27 10:15:00,
2015-02-27 05:30:00,28.2,28.0,30.10,North,-9999,-999.9,-999.0,100,-99.99,,,0.00,weatherlink.com 1.10,2015-02-27 10:30:00,
2015-02-27 05:45:00,28.5,29.0,30.11,North,-9999,-999.9,-999.0,100,-99.99,,,0.00,weatherlink.com 1.10,2015-02-27 10:45:00,
2015-02-27 06:00:00,28.8,29.0,30.11,North,-9999,-999.9,-999.0,100,-99.99,,,0.00,weatherlink.com 1.10,2015-02-27 11:00:00,
2015-02-27 06:15:00,28.9,29.0,30.11,North,-9999,-999.9,-999.0,100,-99.99,,,0.00,weatherlink.com 1.10,2015-02-27 11:15:00,
2015-02-27 06:30:00,29.1,29.0,30.12,North,-9999,-999.9,-999.0,100,-99.99,,,0.00,weatherlink.com 1.10,2015-02-27 11:30:00,
2015-02-27 06:45:00,29.1,29.0,30.13,North,-9999,-999.9,-999.0,100,-99.99,,,0.00,weatherlink.com 1.10,2015-02-27 11:45:00,
2015-02-27 07:00:00,29.2,29.0,30.14,North,-9999,-999.9,-999.0,100,-99.99,,,0.00,weatherlink.com 1.10,2015-02-27 12:00:00,
2015-02-27 07:15:00,29.4,29.0,30.16,North,-9999,-999.9,-999.0,100,-99.99,,,0.00,weatherlink.com 1.10,2015-02-27 12:15:00,
2015-02-27 07:30:00,29.8,30.0,30.17,North,-9999,-999.9,-999.0,100,-99.99,,,0.00,weatherlink.com 1.10,2015-02-27 12:30:00,
2015-02-27 07:45:00,30.4,30.0,30.18,North,-9999,-999.9,-999.0,100,-99.99,,,0.00,weatherlink.com 1.10,2015-02-27 12:45:00,
2015-02-27 08:01:00,31.0,31.0,30.19,North,-9999,-999.9,-999.0,100,-99.99,,,0.00,weatherlink.com 1.10,2015-02-27 13:01:00,
2015-02-27 08:16:00,31.9,32.0,30.19,North,0,0.0,-999.0,100,-99.99,,,0.00,weatherlink.com 1.10,2015-02-27 13:16:00,
2015-02-27 08:31:00,32.8,33.0,30.20,North,0,0.0,-999.0,100,-99.99,,,0.00,weatherlink.com 1.10,2015-02-27 13:31:00,
2015-02-27 08:46:00,33.2,33.0,30.20,North,0,0.0,-999.0,100,-99.99,,,0.00,weatherlink.com 1.10,2015-02-27 13:46:00,
2015-02-27 09:01:00,33.5,34.0,30.21,North,0,0.0,-999.0,100,-99.99,,,0.00,weatherlink.com 1.10,2015-02-27 14:01:00,
2015-02-27 09:16:00,32.3,32.0,30.22,North,0,1.0,-999.0,100,-99.99,,,0.00,weatherlink.com 1.10,2015-02-27 14:16:00,
2015-02-27 09:31:00,31.9,32.0,30.23,NNW,339,0.0,-999.0,100,-99.99,,,0.00,weatherlink.com 1.10,2015-02-27 14:31:00,
2015-02-27 09:46:00,31.7,32.0,30.23,NNW,339,0.0,-999.0,99,-99.99,,,0.00,weatherlink.com 1.10,2015-02-27 14:46:00,
2015-02-27 10:01:00,32.2,32.0,30.23,NNW,337,0.0,-999.0,98,-99.99,,,0.00,weatherlink.com 1.10,2015-02-27 15:01:00,
2015-02-27 10:16:00,32.5,32.0,30.24,NNW,337,0.0,-999.0,98,-99.99,,,0.01,weatherlink.com 1.10,2015-02-27 15:16:00,
2015-02-27 10:31:00,33.1,32.0,30.24,NW,313,1.0,-999.0,97,-99.99,,,0.01,weatherlink.com 1.10,2015-02-27 15:31:00,
2015-02-27 10:46:00,33.2,32.0,30.24,NW,308,0.0,-999.0,95,-99.99,,,0.01,weatherlink.com 1.10,2015-02-27 15:46:00,
2015-02-27 11:01:00,33.2,32.0,30.25,NW,312,0.0,-999.0,94,-99.99,,,0.01,weatherlink.com 1.10,2015-02-27 16:01:00,
2015-02-27 11:16:00,33.1,31.0,30.25,NW,311,1.0,-999.0,92,-99.99,,,0.01,weatherlink.com 1.10,2015-02-27 16:16:00,
2015-02-27 11:31:00,33.2,31.0,30.25,North,349,5.0,-999.0,91,-99.99,,,0.01,weatherlink.com 1.10,2015-02-27 16:31:00,
2015-02-27 11:46:00,32.9,29.0,30.25,NW,313,0.0,-999.0,85,-99.99,,,0.01,weatherlink.com 1.10,2015-02-27 16:46:00,
2015-02-27 12:01:00,32.8,28.0,30.27,NW,315,3.0,-999.0,82,-99.99,,,0.01,weatherlink.com 1.10,2015-02-27 17:01:00,
2015-02-27 12:16:00,32.0,25.0,30.27,NNW,333,3.0,-999.0,76,-99.99,,,0.01,weatherlink.com 1.10,2015-02-27 17:16:00,
2015-02-27 12:31:00,31.9,24.0,30.27,NNW,340,0.0,-999.0,73,-99.99,,,0.01,weatherlink.com 1.10,2015-02-27 17:31:00,
2015-02-27 12:46:00,31.6,23.0,30.27,NNW,336,0.0,-999.0,70,-99.99,,,0.01,weatherlink.com 1.10,2015-02-27 17:46:00,
2015-02-27 13:01:00,31.7,23.0,30.27,NW,305,7.0,-999.0,70,-99.99,,,0.01,weatherlink.com 1.10,2015-02-27 18:01:00,
2015-02-27 13:16:00,31.6,23.0,30.27,WNW,291,2.0,-999.0,71,-99.99,,,0.01,weatherlink.com 1.10,2015-02-27 18:16:00,
2015-02-27 13:31:00,31.4,23.0,30.28,NW,316,0.0,-999.0,72,-99.99,,,0.01,weatherlink.com 1.10,2015-02-27 18:31:00,
2015-02-27 13:46:00,32.0,22.0,30.28,NW,323,1.0,-999.0,68,-99.99,,,0.01,weatherlink.com 1.10,2015-02-27 18:46:00,
2015-02-27 14:01:00,32.6,22.0,30.28,WNW,288,1.0,-999.0,66,-99.99,,,0.01,weatherlink.com 1.10,2015-02-27 19:01:00,
2015-02-27 14:16:00,32.6,22.0,30.28,NNW,328,3.0,-999.0,65,-99.99,,,0.01,weatherlink.com 1.10,2015-02-27 19:16:00,
2015-02-27 14:31:00,33.1,22.0,30.28,WNW,295,0.0,-999.0,65,-99.99,,,0.01,weatherlink.com 1.10,2015-02-27 19:31:00,
2015-02-27 14:46:00,33.7,23.0,30.29,NW,323,4.0,-999.0,64,-99.99,,,0.01,weatherlink.com 1.10,2015-02-27 19:46:00,
2015-02-27 15:01:00,34.0,22.0,30.30,West,278,1.0,-999.0,63,-99.99,,,0.01,weatherlink.com 1.10,2015-02-27 20:01:00,
2015-02-27 15:16:00,33.8,21.0,30.30,NW,316,0.0,-999.0,61,-99.99,,,0.01,weatherlink.com 1.10,2015-02-27 20:16:00,
2015-02-27 15:31:00,33.7,21.0,30.30,NNE,30,1.0,-999.0,60,-99.99,,,0.01,weatherlink.com 1.10,2015-02-27 20:31:00,
2015-02-27 15:47:00,33.5,25.0,30.31,NE,51,0.0,-999.0,70,-99.99,,,0.01,weatherlink.com 1.10,2015-02-27 20:47:00,
2015-02-27 16:02:00,33.5,25.0,30.31,NE,56,0.0,-999.0,70,-99.99,,,0.01,weatherlink.com 1.10,2015-02-27 21:02:00,
2015-02-27 16:17:00,34.1,25.0,30.31,NE,56,0.0,-999.0,70,-99.99,,,0.01,weatherlink.com 1.10,2015-02-27 21:17:00,
2015-02-27 16:32:00,32.6,25.0,30.31,ESE,106,0.0,-999.0,74,-99.99,,,0.01,weatherlink.com 1.10,2015-02-27 21:32:00,
2015-02-27 16:47:00,31.6,25.0,30.31,ESE,114,6.0,-999.0,76,-99.99,,,0.01,weatherlink.com 1.10,2015-02-27 21:47:00,
2015-02-27 17:02:00,31.3,25.0,30.31,ESE,110,1.0,-999.0,78,-99.99,,,0.01,weatherlink.com 1.10,2015-02-27 22:02:00,
2015-02-27 17:17:00,31.1,25.0,30.32,North,-9999,-999.9,-999.0,78,-99.99,,,0.01,weatherlink.com 1.10,2015-02-27 22:17:00,
2015-02-27 17:32:00,31.0,25.0,30.32,North,-9999,-999.9,-999.0,79,-99.99,,,0.01,weatherlink.com 1.10,2015-02-27 22:32:00,
2015-02-27 17:47:00,30.6,25.0,30.34,North,-9999,-999.9,-999.0,79,-99.99,,,0.01,weatherlink.com 1.10,2015-02-27 22:47:00,
2015-02-27 18:02:00,29.8,24.0,30.35,North,-9999,-999.9,-999.0,80,-99.99,,,0.01,weatherlink.com 1.10,2015-02-27 23:02:00,